Home > Time Zones > World Clock > Weather > Italy > Milan > Past weeks

Flag for Italy Weather past 2 weeks in Milan, Italy

Now
68 °F

Passing clouds.


Feels Like: 68 °F
Forecast: 40 / 62 °F
Wind: 14 mph from Northwest

Location: Milan / Linate

Current Time: Mar 27, 2015 at 3:02:58 PM

Latest Report: Mar 27, 2015 at 2:20 PM


Visibility: N/A

Pressure: 29.77 "Hg

Humidity: 18%

Dew point: 23 °F

Location of MilanLocation

Historic Weather in Milan — Graph

°F

Milan temperature yesterday

Maximum temperature yesterday: 61 °F (at 2:20 PM)
Minimum temperature yesterday: 48 °F (at 5:20 AM)
Average temperature yesterday: 54 °F

Past Weeks' High & Low Weather Summary

 TemperatureHumidityPressure
High68 °F (Mar 27, 12:20 PM)100% (Mar 16, 9:50 AM)30.36 "Hg (Mar 16, 9:50 AM)
Low36 °F (Mar 13, 6:20 AM)18% (Mar 27, 1:20 PM)29.53 "Hg (Mar 25, 5:50 PM)
Average51 °F74%30.06 "Hg
* Reported Mar 12 1:20 PM — Mar 27 1:50 PM, Milan, Weather by CustomWeather, © 2015

Note: Actual official high and low records may vary slightly from our data, if they occured in-between our weather recording intervals... More about our weather records

Advertising

Milan weather history for previous 24 hours

 ConditionsComfort  
Time TempWeatherWind HumidityBarometerVisibility
1:50 PM
Fri, Mar 27
68 °FPassing clouds.12 mph18%29.77 "HgN/A
1:20 PM68 °FPassing clouds.13 mph18%29.77 "HgN/A
12:50 PM68 °FSunny.21 mph20%29.77 "Hg10 mi
12:20 PM68 °FPassing clouds.13 mph20%29.77 "HgN/A
11:50 AM66 °FSunny.17 mph19%29.77 "Hg10 mi
11:20 AM66 °FPassing clouds.13 mph21%29.77 "HgN/A
10:50 AM64 °FPassing clouds.16 mph22%29.77 "HgN/A
10:20 AM64 °FSunny.16 mph24%29.77 "Hg10 mi
9:50 AM64 °FPassing clouds.14 mph26%29.74 "HgN/A
9:20 AM63 °FPassing clouds.13 mph27%29.74 "HgN/A
8:50 AM61 °FPassing clouds.10 mph29%29.74 "HgN/A
8:20 AM59 °FPassing clouds.12 mph34%29.71 "HgN/A
7:50 AM57 °FPassing clouds.8 mph51%29.71 "HgN/A
7:20 AM54 °FPassing clouds.7 mph77%29.71 "HgN/A
6:50 AM48 °FPassing clouds.3 mph100%29.71 "HgN/A
6:20 AM46 °FFog.3 mph100%29.71 "Hg2 mi
5:50 AM46 °FFog.2 mph100%29.71 "Hg2 mi
5:20 AM48 °FFog.3 mph100%29.71 "Hg1 mi
4:50 AM45 °FLight fog.3 mph100%29.71 "Hg1 mi
3:50 AM43 °FPassing clouds.5 mph100%29.71 "Hg1 mi
3:20 AM48 °FPassing clouds.2 mph100%29.74 "Hg1 mi
2:50 AM48 °FPassing clouds.1 mph100%29.74 "Hg1 mi
2:20 AM48 °FFog.1 mph100%29.74 "Hg5 mi
1:50 AM50 °FFog.2 mph100%29.74 "Hg5 mi
1:20 AM48 °FFog.1 mph100%29.74 "Hg5 mi
12:50 AM50 °FPassing clouds.No wind100%29.77 "Hg5 mi
12:20 AM52 °FPassing clouds.1 mph100%29.77 "HgN/A
11:50 PM
Thu, Mar 26
54 °FPassing clouds.3 mph94%29.77 "HgN/A
11:20 PM54 °FPassing clouds.2 mph94%29.77 "HgN/A
10:50 PM54 °FPassing clouds.3 mph100%29.77 "HgN/A
10:20 PM54 °FPassing clouds.2 mph94%29.77 "HgN/A
9:50 PM54 °FPassing clouds.3 mph100%29.77 "HgN/A
9:20 PM54 °FPassing clouds.2 mph94%29.77 "HgN/A
8:50 PM55 °FPassing clouds.1 mph88%29.77 "HgN/A
8:20 PM55 °FPassing clouds.3 mph88%29.77 "HgN/A
7:50 PM55 °FPassing clouds.6 mph88%29.74 "HgN/A
7:20 PM55 °FPassing clouds.5 mph88%29.74 "HgN/A
6:50 PM55 °FPassing clouds.6 mph88%29.74 "HgN/A
6:20 PM57 °FPartly sunny.6 mph82%29.74 "HgN/A
5:50 PM57 °FPartly sunny.6 mph82%29.71 "HgN/A
5:20 PM57 °FBroken clouds.6 mph82%29.71 "HgN/A
4:50 PM57 °FBroken clouds.6 mph82%29.71 "HgN/A
4:20 PM59 °FBroken clouds.7 mph77%29.71 "HgN/A
3:50 PM59 °FBroken clouds.6 mph72%29.71 "HgN/A
3:20 PM61 °FScattered clouds.2 mph63%29.71 "HgN/A
Weather by CustomWeather, © 2015

See weather overviewHow to use our weather pages